Theta_e
312 312 313 314 314 312 311 313 314 312 311 311 311 311 311 311 312 312 311 310 310 312 314 319 323 324 325 325 326 329 328 329 329 331 333 336 338 340 340 341 340 340 340 340 340 340 339 339 340 341 341 341 341 340 339 338 338 338 338 338 337 337 336 335 334 333 332 332 332 330 328 328 328 327 328 331 330 329 329 329 328 330 330 330 330 330
312 314 315 313 312 311 312 314 315 312 311 311 311 311 311 311 312 312 311 310 310 315 318 322 326 324 325 326 326 328 328 327 328 329 330 332 335 337 339 340 340 341 341 341 341 341 341 340 339 341 341 341 341 341 339 337 337 337 338 339 339 338 339 338 338 338 337 336 336 333 330 330 329 327 328 330 331 330 331 330 330 330 330 330 331 331
313 314 314 312 310 311 311 312 315 315 314 313 311 311 311 310 311 311 311 310 311 318 321 323 327 326 325 325 326 328 328 327 328 328 329 331 332 333 335 336 337 339 340 340 340 341 341 340 339 341 342 342 341 340 338 337 337 337 338 338 338 339 338 338 338 338 337 336 336 335 333 331 329 328 328 330 331 331 331 331 331 331 330 331 332 330
314 314 312 309 309 311 311 311 314 315 314 314 312 311 311 310 311 311 311 311 311 317 323 326 327 326 326 326 326 327 328 328 329 329 329 330 331 331 331 332 334 336 337 339 339 340 341 341 341 342 342 342 340 338 337 337 336 337 337 337 337 338 337 337 337 337 336 336 335 335 334 332 330 329 329 330 331 331 332 332 332 332 332 332 332 330
314 313 310 308 309 312 312 311 314 313 312 314 313 311 311 311 312 312 311 312 314 318 321 323 325 325 326 327 326 326 327 328 329 329 330 330 330 331 331 331 332 333 334 336 338 339 338 339 339 340 339 338 337 336 335 335 335 335 336 336 336 336 336 336 335 335 334 334 335 334 334 333 331 331 330 331 331 330 332 333 333 333 333 332 331 330
313 311 309 308 309 310 311 311 312 313 312 313 313 312 312 312 312 312 312 314 319 321 316 314 319 324 325 327 327 326 326 327 328 329 329 330 331 331 331 331 331 332 332 333 334 335 335 335 335 335 335 334 334 334 335 335 336 336 337 336 336 336 335 334 333 333 332 332 333 334 334 334 333 332 332 332 332 331 332 333 334 334 333 332 332 330
311 309 309 309 309 309 310 310 310 312 312 312 313 313 311 312 312 312 313 314 317 318 313 311 318 324 325 327 327 326 326 326 327 329 330 330 330 330 331 331 332 332 332 332 332 332 334 333 333 333 333 333 334 335 336 337 337 337 337 336 336 335 333 332 331 331 332 332 332 332 333 333 333 333 333 333 333 332 333 333 333 334 333 333 332 331
310 309 309 310 310 310 310 311 310 311 312 312 314 313 310 311 312 312 314 314 314 314 312 312 317 323 325 326 326 326 326 326 327 328 329 330 330 330 330 330 331 332 332 332 332 332 332 332 332 332 333 333 334 336 336 337 337 336 336 335 334 333 332 332 331 331 332 332 332 332 331 331 332 333 333 334 334 333 333 333 333 333 334 333 332 331
311 310 310 310 311 310 311 312 310 309 311 312 311 311 310 311 312 313 313 314 314 314 313 314 315 321 326 325 325 326 326 327 328 328 329 330 329 329 330 330 330 331 331 331 331 331 331 331 331 331 332 333 334 335 334 334 335 335 335 334 333 332 332 331 331 330 331 331 331 331 331 331 332 333 333 333 334 334 333 333 333 333 333 333 332 332
311 311 311 311 311 311 311 311 310 310 311 310 309 310 311 311 312 313 313 314 315 315 313 313 313 318 324 325 327 328 327 328 328 329 329 329 328 328 328 328 329 329 329 329 329 330 330 330 331 331 333 334 334 335 332 330 333 334 333 333 332 331 331 331 331 330 330 331 332 331 331 331 332 333 333 333 333 333 332 332 333 331 330 331 332 332
311 311 311 311 312 312 311 309 308 309 310 309 310 311 311 312 312 314 314 314 315 314 314 315 315 318 322 325 327 328 328 328 328 329 329 326 326 326 325 325 326 327 327 327 328 328 328 329 330 332 333 334 334 334 332 330 331 332 331 331 330 330 330 331 331 330 329 330 332 332 331 332 332 332 332 332 332 331 330 331 332 330 329 329 330 331
310 311 311 311 311 311 310 308 308 308 309 310 312 313 312 313 314 314 314 314 314 314 315 316 314 318 324 326 326 327 327 326 327 329 327 325 325 323 323 323 323 324 326 327 328 328 328 329 329 330 331 332 333 332 332 331 331 331 330 330 329 329 329 330 330 329 329 329 330 330 331 332 332 333 332 332 331 329 328 328 329 330 329 329 330 330
311 311 311 310 311 311 310 310 308 308 309 310 312 313 312 313 314 314 313 314 314 314 315 314 315 323 329 327 326 327 327 327 327 327 325 324 324 322 322 321 321 322 324 325 326 327 328 328 328 329 329 330 330 330 330 330 329 329 329 328 328 328 328 328 328 329 328 328 329 330 329 330 330 330 331 332 331 328 326 326 327 329 329 329 330 330
312 312 310 310 311 311 312 311 310 309 309 310 312 313 313 313 314 314 313 313 313 313 314 315 319 328 330 327 327 326 326 327 325 324 324 322 322 321 320 320 320 321 322 323 324 326 326 327 327 328 328 328 328 328 328 328 328 328 328 328 327 327 327 327 327 327 327 327 327 328 329 329 328 327 328 329 328 326 325 327 329 330 330 330 331 330
313 313 312 311 311 312 312 312 311 310 309 310 312 312 313 314 315 314 313 314 315 315 316 317 320 327 329 327 326 326 326 325 324 323 322 321 320 320 319 319 319 320 321 321 322 324 324 325 326 326 327 327 326 326 326 326 326 326 327 327 327 327 327 327 327 327 327 327 327 328 329 330 329 327 327 328 328 327 328 329 329 330 331 331 331 330
312 313 312 310 310 311 312 311 310 310 310 310 310 312 313 314 316 314 312 314 317 317 318 320 323 325 327 326 325 326 326 324 324 322 321 320 319 318 318 317 317 318 320 321 321 322 322 323 324 325 325 325 324 324 324 324 325 325 325 326 326 326 326 327 327 327 327 327 328 328 328 328 328 328 328 329 329 330 330 329 328 328 331 332 331 330
311 313 311 310 309 311 312 311 310 311 312 310 309 312 312 312 316 316 311 312 316 318 319 321 326 327 326 326 326 326 325 323 323 321 319 319 318 316 316 315 314 316 318 320 320 321 321 321 322 323 323 323 323 323 324 324 324 324 325 325 326 326 326 326 326 326 326 326 327 328 328 327 328 329 330 329 329 329 328 327 324 325 330 332 331 330
312 313 311 311 311 310 310 311 310 310 311 311 311 312 310 310 314 315 314 313 315 320 321 321 327 328 326 327 327 327 326 323 321 320 319 318 316 315 314 313 313 314 316 318 319 319 320 321 322 322 322 321 321 321 322 322 323 323 323 324 325 325 326 326 326 326 326 326 326 327 327 327 327 328 329 328 328 327 325 324 322 325 329 331 331 331
314 314 311 311 312 309 309 311 311 309 310 311 312 311 311 313 313 312 314 314 315 321 323 324 326 326 326 326 327 328 327 324 321 319 318 316 315 315 313 313 313 313 315 316 317 318 318 319 319 320 320 320 320 320 320 320 321 321 322 322 322 323 324 325 326 326 326 326 326 327 327 328 327 328 327 327 326 326 323 322 322 326 330 331 331 330
314 317 313 310 311 310 310 312 312 311 310 310 311 311 311 314 314 313 313 314 317 321 323 326 325 325 325 324 325 328 326 323 320 317 316 315 314 313 313 312 313 313 314 315 315 315 316 316 317 317 318 318 318 318 318 319 320 320 320 321 321 321 322 323 324 325 326 325 326 326 327 327 327 327 326 326 326 323 321 321 322 325 330 331 330 329
315 318 316 311 309 311 312 313 313 312 311 311 312 312 312 312 312 313 312 312 317 320 322 326 325 324 324 322 324 328 325 321 318 316 315 314 312 312 312 311 312 312 312 313 313 314 314 315 316 316 316 316 316 316 316 317 318 318 319 320 320 321 321 322 323 324 325 326 326 326 327 327 328 328 328 328 326 323 321 322 322 323 328 331 330 329
316 317 317 314 313 314 315 315 313 312 312 313 313 313 313 313 312 312 312 312 316 319 321 324 324 323 322 322 325 327 322 319 317 315 314 313 312 311 310 310 311 311 312 312 312 313 313 314 314 315 315 314 315 315 315 316 317 318 318 319 319 320 320 321 321 322 323 325 326 327 327 327 328 328 328 328 327 325 324 324 324 324 326 329 330 329
319 319 318 317 316 315 315 314 313 313 314 315 315 313 312 315 315 314 314 314 315 317 319 320 320 322 321 321 323 322 319 317 315 314 313 311 311 310 310 310 311 311 312 312 312 312 313 313 313 313 313 313 314 313 313 314 315 317 318 318 319 319 320 320 321 321 322 324 326 327 326 327 328 328 327 326 327 327 326 325 325 326 325 327 329 330
320 320 318 317 316 315 313 312 314 315 316 316 316 315 314 315 316 316 316 317 317 317 319 317 317 323 322 318 318 317 316 315 313 312 312 311 310 309 309 309 310 311 311 311 312 312 312 312 312 312 312 312 312 312 312 313 314 315 316 318 318 318 319 320 321 321 322 322 325 326 326 326 327 328 328 327 327 327 326 326 326 327 327 327 328 329
315 315 317 318 317 317 316 315 315 316 318 318 317 315 314 313 314 317 317 317 318 318 318 316 316 322 321 316 315 314 313 312 312 311 310 310 309 308 308 308 309 311 311 311 311 311 311 311 310 310 311 311 312 312 312 313 313 314 315 316 317 317 318 319 320 321 321 321 323 324 325 326 326 327 327 327 327 327 327 327 328 329 330 329 328 328
317 314 316 318 318 317 317 317 317 317 318 317 315 315 315 313 316 319 317 315 317 317 317 316 320 322 319 315 314 313 311 311 310 309 309 309 308 307 307 307 308 310 310 310 310 310 311 310 309 310 310 311 311 312 312 312 313 313 314 315 316 317 317 318 319 320 321 322 322 323 324 325 326 326 326 327 328 328 328 328 328 330 330 329 329 328
316 312 314 318 319 317 316 317 316 317 319 319 316 316 316 314 315 318 316 314 316 317 317 319 322 322 320 317 315 313 311 310 309 308 308 307 307 307 306 306 306 308 308 309 309 309 310 309 309 309 310 310 311 312 312 312 313 313 314 315 315 316 317 317 318 319 320 322 322 322 322 323 325 326 326 327 327 328 328 329 329 329 330 330 329 328
318 315 314 316 317 315 315 315 315 315 318 318 317 317 317 316 318 321 320 318 317 317 318 320 321 322 321 317 315 312 310 309 308 307 307 306 306 306 305 305 306 306 307 307 308 308 308 308 309 309 309 310 311 311 312 312 312 313 314 314 314 315 316 316 317 317 319 321 321 322 322 322 323 323 325 326 326 327 328 328 329 329 330 330 330 328
318 316 314 315 315 314 313 314 314 314 314 314 315 316 316 316 320 323 321 317 319 320 320 321 321 322 319 315 312 310 308 307 306 306 306 305 305 305 304 305 306 305 305 306 307 307 308 308 309 309 309 309 310 311 311 312 312 312 313 313 314 314 315 316 316 316 317 318 319 320 321 321 321 322 323 324 325 326 326 327 328 329 329 330 330 329
316 315 313 314 315 314 313 314 314 314 314 314 314 314 315 315 316 317 317 315 319 322 321 319 318 316 313 310 308 307 306 306 305 305 305 304 304 304 304 304 304 304 304 305 306 307 308 308 309 309 309 309 310 310 310 311 311 312 312 313 313 314 314 315 315 315 316 316 317 319 320 321 321 321 322 323 324 325 325 326 327 328 329 329 329 330
316 315 314 314 315 315 313 313 314 314 314 314 313 313 314 315 315 315 315 315 318 319 317 315 314 311 309 307 307 306 305 305 304 304 304 303 303 303 303 303 303 303 303 304 305 305 307 308 308 309 309 309 309 309 309 310 311 311 312 312 313 313 314 314 315 315 315 315 315 316 317 318 320 320 321 322 323 323 324 325 326 327 327 328 328 329
318 315 313 315 318 317 314 313 314 314 314 315 314 313 314 315 315 315 314 314 316 317 315 314 314 311 307 306 305 305 304 304 303 303 303 302 302 303 302 302 302 302 303 303 304 304 306 306 306 307 308 308 308 308 308 309 310 311 311 311 312 313 313 314 314 314 314 314 315 315 315 316 317 318 319 321 323 323 323 324 325 325 326 326 326 328
318 316 314 316 319 318 315 314 314 316 317 318 315 312 313 314 314 313 313 313 314 315 315 315 313 308 306 305 305 303 303 303 302 302 302 302 302 302 302 301 301 301 302 302 303 303 304 304 305 305 306 305 305 306 306 307 309 309 310 311 312 312 312 313 313 313 314 314 314 314 314 314 315 316 317 319 321 323 323 323 324 324 325 325 325 326
316 316 315 316 318 318 315 314 314 316 318 318 312 310 312 313 312 312 312 311 311 311 311 310 308 305 305 305 304 303 302 301 301 301 301 301 301 301 301 301 301 301 301 301 302 302 303 303 303 304 304 304 304 304 305 306 307 308 309 310 311 312 312 312 312 312 313 313 313 313 313 314 314 314 315 317 319 322 323 323 323 324 324 324 324 324
315 315 315 315 316 317 315 315 317 317 316 312 309 309 310 310 310 310 309 308 308 308 307 307 306 305 304 303 302 301 301 300 300 300 300 300 300 300 300 300 300 300 300 301 301 302 302 302 303 303 303 303 302 303 303 304 305 306 307 309 310 311 312 312 312 312 312 312 313 313 313 313 313 314 314 315 317 320 321 322 322 323 323 324 324 323
315 314 314 313 315 316 315 316 318 316 312 310 310 310 310 310 310 311 311 309 307 307 307 306 304 303 302 301 301 300 300 299 299 299 299 299 299 299 299 299 299 300 300 300 301 301 301 301 302 302 301 301 301 302 302 302 303 304 305 306 307 309 310 311 312 312 312 312 312 313 313 312 312 313 314 314 315 317 319 320 320 321 322 322 323 323
315 315 315 314 313 314 315 314 313 313 312 312 311 310 310 311 311 312 313 310 307 306 306 304 303 302 301 301 301 300 300 300 300 299 298 298 298 298 299 299 299 300 300 300 300 301 301 301 301 301 300 300 300 301 301 301 302 302 303 303 303 304 306 307 309 310 311 312 312 312 312 312 312 312 313 314 314 315 316 317 317 318 319 320 321 321
314 315 316 316 312 311 313 313 312 315 316 314 311 310 310 310 310 310 312 311 307 306 305 303 302 302 301 301 301 300 302 303 301 299 298 298 298 299 299 299 300 300 300 300 300 300 300 300 300 300 300 300 300 300 300 300 301 301 301 301 301 302 302 304 305 307 309 311 312 312 312 312 312 312 312 313 313 312 312 313 314 315 316 317 318 318
312 313 313 314 312 310 313 314 313 314 314 311 310 309 308 309 308 309 313 314 308 305 304 303 302 302 302 302 301 301 304 305 302 299 298 298 298 299 299 299 300 300 300 300 300 300 300 300 301 300 300 300 300 299 300 300 301 301 301 301 300 300 301 302 303 305 307 309 310 311 312 312 312 312 312 312 311 310 310 311 312 313 313 314 315 315
312 311 312 313 312 310 311 312 311 310 310 309 309 309 308 308 308 311 316 315 308 305 304 303 302 302 302 302 302 303 305 305 302 299 298 298 298 299 299 299 300 299 300 300 300 300 300 300 300 300 300 300 300 300 300 300 300 300 301 301 300 300 300 300 302 304 306 307 309 310 311 312 312 311 311 311 310 309 309 310 311 311 312 312 312 314
311 310 309 310 310 310 311 312 310 309 308 308 308 308 308 308 311 314 316 312 306 305 304 303 303 302 302 303 303 302 302 302 300 299 298 298 299 299 299 300 300 300 300 300 300 300 300 300 300 300 300 300 300 300 300 300 300 300 300 301 301 300 300 300 301 302 304 306 307 308 309 310 310 311 311 310 310 309 309 309 310 310 311 311 312 312
311 310 309 309 309 308 308 310 310 309 307 307 308 307 308 310 313 313 311 307 306 305 304 303 303 303 302 302 301 300 300 300 299 298 298 299 299 300 300 300 300 300 300 300 300 300 300 300 300 300 300 300 300 300 301 301 301 301 301 301 301 301 300 300 300 301 302 304 305 306 308 308 309 309 310 310 309 309 309 309 309 309 309 310 311 312
309 310 310 308 306 307 308 310 312 311 308 307 308 309 309 311 311 309 307 306 306 305 304 303 303 303 303 301 300 300 300 299 299 299 299 299 300 300 300 300 300 300 299 299 299 299 299 299 299 299 299 299 300 300 300 301 301 301 301 301 301 301 301 301 301 301 301 302 303 304 306 307 307 308 309 309 309 309 308 308 308 309 309 309 310 311
307 308 309 307 305 308 310 310 310 308 305 306 309 310 309 308 307 306 306 306 305 304 304 303 303 303 303 301 300 299 299 299 299 299 299 300 300 300 300 300 299 299 299 299 299 298 298 299 299 299 299 299 300 300 300 300 300 300 300 300 301 301 301 301 301 301 301 300 301 302 304 305 306 307 306 306 306 306 306 306 307 307 308 308 308 309
306 306 307 306 305 306 308 307 306 304 304 306 307 307 306 305 305 305 305 305 304 304 304 303 303 303 302 301 300 299 299 299 299 299 299 300 300 299 300 299 299 299 299 299 299 299 299 299 299 299 299 299 299 300 300 300 299 299 299 299 300 301 301 301 301 301 300 300 299 299 300 302 304 305 305 304 304 303 303 304 304 305 305 306 306 307
304 304 305 306 305 305 306 306 305 305 305 305 305 304 304 305 305 306 306 305 304 303 303 304 303 302 301 301 300 299 298 299 299 299 299 299 299 299 299 299 299 299 299 299 299 299 299 299 299 299 299 299 299 299 299 298 298 298 298 298 298 299 300 300 301 300 300 300 299 298 298 299 301 303 304 304 303 303 303 303 303 303 303 303 303 304
304 305 305 306 306 306 307 306 305 305 305 304 304 304 304 304 305 306 306 305 303 303 303 303 303 301 301 301 300 299 298 298 298 298 299 299 299 299 299 299 299 299 299 299 299 299 299 299 299 299 299 299 299 298 298 298 298 297 297 297 297 297 297 299 300 300 300 300 300 299 299 298 298 299 300 301 302 302 301 301 301 301 301 302 302 301
305 305 305 305 305 306 306 305 304 304 304 303 303 303 303 303 304 304 304 304 304 303 303 302 302 301 300 300 299 299 298 298 298 299 299 299 299 299 299 299 299 299 299 299 299 299 299 299 299 299 299 299 299 299 298 298 298 298 298 298 297 297 296 296 298 299 300 300 300 300 300 299 299 299 298 298 298 299 299 299 298 299 299 300 300 300
304 305 305 305 305 305 305 304 303 303 303 302 302 302 302 302 303 303 303 303 303 303 302 301 300 300 299 298 298 298 298 298 299 299 299 299 299 299 299 299 299 299 299 299 299 299 299 299 299 299 299 299 299 299 299 299 299 298 298 298 298 297 296 296 297 297 298 299 300 300 300 300 300 300 299 298 298 298 298 298 298 298 298 298 298 298
304 305 304 305 306 306 304 304 305 305 304 302 301 301 302 302 302 302 302 302 301 301 300 299 299 298 298 298 298 298 299 299 299 299 299 299 299 299 299 299 299 299 299 299 299 299 299 299 299 299 299 299 299 299 299 299 299 299 298 298 298 297 297 297 298 298 298 298 299 300 300 300 300 300 300 299 299 298 298 298 297 297 297 297 297 297
304 305 305 305 306 306 305 304 304 304 303 301 301 301 302 302 302 301 301 300 300 299 299 298 298 298 299 299 299 299 299 299 299 299 299 299 299 299 299 299 299 299 299 299 299 299 299 299 299 299 299 299 299 299 299 298 298 298 298 298 298 297 297 297 298 298 298 298 299 299 299 300 300 300 300 300 299 299 299 298 298 297 297 296 296 296
Wind_Speed
9 7 6 8 7 8 7 7 6 4 5 6 5 4 4 4 2 1 1 2 1 4 5 6 10 10 10 11 11 11 13 16 14 10 8 3 2 5 7 7 5 5 7 8 9 8 8 8 6 6 7 9 11 11 12 14 16 17 17 19 20 20 20 21 23 23 24 26 27 28 28 28 28 26 23 22 21 19 17 16 16 16 14 13 13 14
8 7 7 7 6 8 7 6 7 6 5 5 5 4 3 3 2 1 2 3 1 4 3 5 12 11 8 9 11 12 14 15 14 11 10 8 4 1 3 3 3 5 7 8 9 10 10 8 6 7 8 9 11 12 13 12 13 16 17 18 20 21 21 21 21 22 23 24 25 27 26 25 27 27 25 23 22 20 18 17 17 17 16 14 14 14
6 6 6 6 5 7 5 4 8 7 4 3 3 3 3 2 1 1 3 3 1 5 4 5 11 9 6 9 12 15 14 13 13 12 11 10 8 6 4 2 2 4 6 8 8 10 10 8 6 9 9 9 11 11 12 12 12 14 15 17 19 21 21 21 22 22 24 24 25 25 23 23 25 27 26 25 23 21 20 19 18 18 17 15 15 15
6 6 7 7 7 9 6 4 7 6 2 2 2 3 3 2 2 2 2 2 3 4 7 9 10 7 5 7 11 14 14 13 13 13 13 12 11 9 7 6 4 2 3 6 8 8 10 8 8 10 10 9 10 9 9 10 11 12 13 14 17 18 19 21 22 23 23 23 24 24 21 21 24 27 27 25 24 23 22 20 19 19 17 16 16 15
5 5 10 9 6 8 7 6 7 6 3 1 3 4 3 3 3 2 3 1 4 4 4 8 8 5 6 7 9 11 12 13 13 14 15 15 13 11 10 9 8 5 3 2 5 6 6 6 7 9 8 7 7 7 8 9 10 11 12 13 14 16 17 19 20 21 20 20 22 22 20 18 20 25 27 26 25 25 24 22 22 19 17 16 16 15
5 7 14 11 5 7 8 7 6 7 5 3 4 6 5 5 4 3 5 5 6 4 2 1 3 3 4 7 9 8 9 12 13 15 16 15 15 14 14 13 11 8 6 4 1 1 1 1 2 2 3 4 5 7 9 10 10 11 11 12 13 14 14 15 16 17 16 16 18 20 21 20 19 21 25 25 25 26 25 23 20 17 15 16 16 15
3 7 11 10 9 9 8 6 5 5 6 4 4 6 5 4 4 4 5 5 5 5 2 1 1 3 1 4 8 8 9 11 11 14 16 16 16 16 16 15 14 13 10 9 6 4 5 5 4 3 3 4 6 8 9 10 10 11 11 12 13 13 13 12 13 13 15 16 17 18 20 21 20 20 22 22 22 24 23 19 16 14 14 15 15 14
5 8 6 8 10 8 7 6 5 6 7 3 3 7 7 5 6 5 5 3 2 3 3 2 0 4 4 3 7 6 9 11 11 13 15 16 17 16 16 16 16 15 13 11 10 7 6 6 5 4 4 5 6 8 9 10 10 10 11 12 13 12 11 11 11 11 13 15 17 18 19 20 20 19 21 20 19 19 18 15 14 13 13 13 14 14
5 8 8 9 8 5 5 5 7 9 6 2 3 6 6 5 4 3 3 3 1 3 5 3 1 2 3 2 4 5 8 11 11 12 14 16 16 15 17 17 16 16 15 14 13 11 9 7 7 6 5 6 7 8 9 10 11 11 11 12 12 12 12 13 13 12 13 14 15 16 16 16 16 16 18 18 17 18 15 12 12 12 12 12 13 14
3 10 13 11 7 6 6 5 10 12 5 2 6 6 4 3 3 2 2 3 2 4 6 2 2 2 3 1 3 4 6 7 7 8 11 15 16 16 17 17 17 17 17 17 17 16 14 11 9 8 7 8 7 8 9 9 9 10 11 12 12 12 12 13 13 13 13 14 15 16 14 13 13 13 14 15 16 16 12 9 10 11 11 12 12 14
1 8 11 8 5 6 6 4 7 8 5 7 8 6 5 3 2 1 1 1 3 3 3 1 3 1 3 0 2 3 4 3 3 6 9 13 16 17 17 17 17 18 18 17 17 17 16 15 13 11 8 8 8 9 11 12 10 11 11 12 12 11 11 11 12 14 14 12 13 15 14 12 11 12 12 13 13 11 10 10 9 9 10 12 13 14
3 6 5 4 6 7 7 5 2 1 4 5 4 5 5 3 1 1 1 1 4 4 2 1 3 2 2 1 1 3 4 2 3 7 9 11 14 15 16 16 16 17 17 17 17 16 16 15 15 13 11 9 9 10 13 15 15 15 13 12 12 10 10 11 12 14 14 13 11 12 12 11 10 10 11 14 15 13 12 12 11 10 11 12 14 15
3 4 1 2 7 8 8 6 3 2 3 3 3 7 7 4 3 3 3 3 3 2 1 1 2 1 3 3 4 5 4 5 7 10 11 11 13 14 15 16 17 18 18 18 18 17 16 16 16 15 14 13 12 13 14 16 17 18 16 15 14 13 12 12 12 13 14 15 12 11 12 12 12 12 13 15 16 15 15 14 12 13 13 14 16 18
4 2 2 3 5 8 10 8 5 4 5 5 5 8 7 5 5 5 3 2 1 2 1 2 2 3 5 4 5 5 6 10 13 13 13 13 13 13 14 16 18 19 19 19 19 18 17 17 16 16 16 16 15 15 15 15 16 16 15 15 15 14 14 14 15 15 16 17 16 15 15 14 14 15 15 16 16 16 16 15 13 14 14 15 17 18
7 4 6 7 4 9 11 7 7 7 6 4 2 3 5 4 4 4 3 2 3 3 2 2 1 3 5 5 5 7 10 13 14 13 14 15 13 13 15 17 18 19 19 19 19 18 18 17 16 16 16 15 16 16 15 15 14 14 13 14 14 14 14 14 15 15 14 15 15 15 14 14 14 14 15 16 16 15 15 14 14 15 16 15 16 17
6 3 4 4 4 11 11 5 8 10 6 3 1 1 4 4 3 3 1 1 3 3 2 3 2 2 4 5 5 8 12 12 12 13 14 14 13 14 16 17 17 18 18 18 17 17 17 16 15 15 15 15 15 15 15 15 15 15 15 14 14 14 14 14 14 14 13 13 13 12 11 11 11 12 13 13 13 13 13 15 17 17 16 15 15 17
4 3 2 2 3 7 9 8 8 7 5 3 3 4 2 2 5 5 2 2 1 3 2 1 2 4 4 4 6 9 11 11 10 12 13 12 13 15 16 14 14 16 17 17 17 17 17 16 15 15 15 15 14 13 13 14 15 16 16 15 14 13 12 13 13 15 15 15 14 12 11 10 9 9 10 10 11 13 12 13 17 19 17 15 16 17
4 3 1 3 4 3 5 11 6 1 4 5 6 6 4 2 3 3 3 2 1 3 2 0 4 6 4 4 7 10 11 10 10 11 11 11 12 13 13 11 12 14 15 16 16 17 16 15 14 14 13 13 13 13 13 14 15 16 16 16 15 14 14 13 14 15 16 17 15 14 13 11 10 10 10 10 10 10 9 10 14 18 17 15 17 18
2 3 1 2 3 3 4 9 6 2 1 2 6 6 3 2 3 1 2 3 3 3 3 2 4 6 5 4 8 11 11 11 10 10 9 9 10 10 10 10 11 13 16 16 16 16 16 15 15 13 12 12 12 13 14 14 15 16 16 16 15 15 15 15 15 15 16 17 16 15 15 13 12 12 12 11 9 8 10 11 12 15 16 16 17 17
0 2 2 1 1 3 3 4 5 5 2 3 6 5 0 1 3 2 1 2 4 4 3 4 3 5 4 4 9 12 11 11 11 10 8 8 9 9 9 10 12 15 16 16 16 16 16 15 15 13 12 12 12 13 15 15 15 15 14 14 15 15 15 15 15 15 15 17 16 14 13 14 13 12 12 13 12 11 11 11 12 14 16 16 17 17
0 1 2 1 0 3 4 2 4 7 6 5 7 5 2 2 2 2 3 2 2 5 5 5 3 3 1 2 8 12 11 11 13 11 8 8 8 9 10 10 12 14 15 15 15 15 15 14 14 13 13 13 13 14 15 15 16 16 16 15 15 15 15 15 14 14 14 13 13 11 9 10 11 11 12 13 14 12 11 12 13 14 16 17 18 18
0 1 2 2 2 2 1 1 2 2 4 5 6 5 4 4 4 5 3 1 2 3 4 5 4 2 2 1 5 9 11 12 15 14 11 9 9 10 10 10 11 13 14 14 14 14 13 13 13 12 13 13 14 15 15 15 16 17 17 18 17 16 16 15 14 13 12 11 11 9 7 8 11 12 12 13 13 14 14 14 15 16 18 19 19 20
1 2 4 3 3 1 1 2 1 1 3 5 3 2 3 3 4 6 5 4 2 2 3 2 2 3 3 3 7 11 11 15 18 16 13 10 9 10 10 10 11 12 12 13 13 13 13 13 12 12 12 13 14 16 17 17 17 17 17 17 18 18 17 15 13 12 11 9 9 9 8 9 11 12 13 13 14 15 16 17 17 18 20 20 20 21
1 2 3 4 3 2 2 2 2 3 4 5 5 3 1 1 2 2 3 5 4 4 4 3 2 3 4 6 12 16 16 17 18 15 13 11 10 10 9 9 10 11 11 11 11 12 12 12 13 14 14 15 17 19 20 20 19 19 18 17 18 20 20 17 13 10 10 9 8 9 8 10 13 14 14 15 15 16 17 18 19 20 21 20 20 22
2 1 2 5 4 3 3 3 2 2 3 3 3 3 2 2 5 5 4 4 3 3 3 4 4 3 5 8 12 15 17 16 16 14 12 11 10 9 9 9 10 11 11 11 11 11 12 13 15 16 17 18 19 20 22 23 22 21 20 19 19 21 23 21 15 10 9 9 8 9 10 12 15 17 17 17 17 17 18 19 20 21 21 21 21 22
3 2 1 3 4 5 4 4 3 2 2 2 2 3 4 3 3 4 4 4 4 4 2 3 4 4 7 9 10 12 13 13 14 13 11 10 10 10 10 9 10 12 13 12 12 12 12 13 14 16 18 19 20 21 23 24 24 23 23 22 22 23 25 25 19 12 8 8 8 8 9 12 15 18 19 19 19 19 19 20 21 21 22 22 22 23
4 4 4 4 4 3 2 2 1 1 3 3 2 4 4 3 2 1 4 4 4 6 3 2 6 11 11 10 10 11 10 11 12 12 11 10 10 11 11 9 10 12 13 14 13 13 13 13 14 16 18 19 20 21 23 25 25 25 26 26 26 26 27 28 25 19 12 9 9 8 8 10 13 16 18 19 20 21 21 21 21 22 22 22 22 24
4 4 6 9 10 6 4 4 4 4 5 5 4 4 4 3 2 1 4 3 6 7 3 3 11 15 13 12 11 11 10 10 11 11 11 10 10 12 11 10 12 13 13 14 13 13 13 14 15 17 19 20 21 21 22 24 25 25 26 26 27 27 28 28 29 26 20 15 12 11 10 9 11 14 17 18 19 21 22 22 22 22 23 23 24 25
5 4 3 8 11 9 7 7 8 10 10 9 9 7 5 5 4 4 3 1 1 2 3 9 14 13 11 11 10 10 11 11 11 11 11 10 11 13 11 12 13 13 14 14 14 13 14 14 15 17 19 21 21 21 21 22 24 24 24 25 26 26 27 28 28 27 25 22 18 15 14 12 11 12 15 17 19 20 21 23 23 23 24 24 25 26
3 5 5 9 12 11 9 7 8 11 12 12 12 10 8 9 10 9 8 5 5 5 7 15 16 10 7 9 10 12 13 13 13 12 10 11 13 13 11 13 14 13 14 14 13 13 13 12 14 16 18 20 21 21 21 21 23 24 24 24 25 25 25 26 27 26 26 25 24 21 18 15 12 12 13 16 18 19 20 21 23 24 25 26 26 27
2 5 5 4 7 8 8 9 9 11 13 14 13 10 9 9 10 10 9 7 8 9 13 17 15 9 6 10 13 14 13 13 13 12 11 12 13 12 12 13 13 12 13 13 12 13 12 12 13 15 17 18 19 20 20 20 22 23 24 24 24 25 24 24 25 27 27 26 26 26 24 21 17 16 15 14 15 17 18 18 19 22 24 25 27 29
3 6 4 1 4 4 4 7 8 7 10 13 12 11 9 7 6 7 7 5 4 11 15 14 10 7 7 11 14 13 13 14 12 11 12 12 12 11 12 13 11 11 13 13 12 13 13 13 14 15 15 16 18 19 19 19 20 22 23 24 23 23 23 22 24 26 27 27 27 27 27 26 23 21 18 15 13 13 15 15 15 17 19 21 24 27
3 7 5 1 4 4 3 2 2 0 5 6 6 7 6 6 7 8 8 8 4 9 11 7 6 8 10 11 11 11 12 12 11 11 12 12 11 12 13 12 11 11 12 12 13 14 14 14 15 15 15 16 18 19 19 19 19 20 22 22 22 21 22 23 24 25 27 28 29 29 29 29 28 26 24 19 13 10 11 13 13 14 15 16 18 21
4 6 4 1 3 6 6 2 1 3 4 1 3 4 2 3 8 9 8 8 7 6 7 7 10 11 10 10 10 10 12 12 13 13 12 10 10 12 14 13 12 12 13 13 14 14 14 14 14 14 15 16 18 18 18 18 19 19 20 20 20 20 21 23 24 25 26 28 29 30 31 31 30 30 29 24 17 11 9 10 11 12 13 13 14 15
6 5 3 2 4 5 4 2 3 5 1 1 1 2 4 8 13 13 12 10 9 11 13 13 12 11 11 13 14 16 17 16 15 14 13 11 11 14 15 14 13 13 13 13 14 14 14 14 14 14 15 16 17 17 18 18 18 18 19 19 20 20 21 22 23 25 27 27 28 30 30 31 31 32 31 28 21 14 12 13 13 14 14 14 14 15
6 5 4 3 3 3 3 1 2 3 1 1 3 4 5 8 10 10 11 9 7 9 13 13 12 13 16 17 17 19 21 19 17 16 14 12 13 15 14 13 13 14 13 13 14 14 14 14 14 14 14 15 16 17 18 18 18 18 19 20 22 22 22 22 23 25 27 28 28 29 29 29 31 32 32 30 24 17 15 16 16 16 15 14 15 16
4 5 4 3 1 2 4 4 3 2 2 2 2 2 2 3 2 2 5 5 4 6 10 12 13 14 16 17 18 20 19 16 16 15 12 12 14 13 12 12 13 13 13 13 13 13 14 13 13 13 14 15 16 17 18 18 18 18 20 22 24 25 25 25 26 27 27 27 27 28 27 28 30 32 33 32 28 22 19 17 17 15 13 13 14 16
4 2 3 3 1 1 4 5 3 3 3 4 4 2 1 1 1 1 3 4 4 7 12 13 13 15 17 17 17 15 11 8 9 7 7 10 11 12 12 14 14 13 13 14 13 13 13 14 14 14 14 14 16 17 18 18 18 19 21 24 26 27 27 28 27 28 27 26 25 25 24 25 28 30 32 33 31 28 24 21 18 15 11 9 11 12
8 4 3 4 3 2 4 4 4 3 1 2 5 2 1 1 1 1 2 3 6 11 14 15 15 16 17 16 14 9 5 4 5 4 7 10 12 13 14 14 14 14 13 13 12 12 12 13 13 13 13 15 16 17 17 17 18 20 23 26 27 28 28 28 27 26 25 24 23 22 22 23 25 28 29 31 31 29 26 23 19 16 13 9 7 6
7 4 3 4 4 3 3 3 2 1 1 1 4 2 1 0 1 3 3 3 9 15 16 16 18 18 16 15 10 4 2 5 8 10 12 13 13 13 13 13 13 13 12 12 12 11 11 11 11 13 14 15 16 15 15 16 18 21 24 26 27 29 28 27 25 24 24 23 21 21 21 21 23 25 26 28 28 26 24 23 19 16 13 11 9 6
4 3 2 3 4 3 3 3 2 1 1 2 3 1 2 2 3 3 2 4 13 17 15 16 19 19 15 12 8 6 8 12 16 17 16 15 14 13 13 13 12 12 12 12 12 11 11 12 13 14 15 15 14 14 15 17 18 21 23 25 27 28 27 25 24 23 23 23 21 21 22 22 22 23 23 25 25 24 23 22 19 16 14 13 11 9
2 2 2 2 3 3 2 2 2 1 1 4 3 1 1 2 2 2 4 9 16 18 17 18 19 16 13 12 14 17 19 19 19 19 17 15 14 14 13 13 13 13 13 12 12 12 13 14 15 16 16 15 15 15 16 16 18 21 22 24 26 25 23 23 23 23 23 23 23 23 23 23 22 21 21 21 22 23 22 21 20 18 16 15 13 12
2 2 2 2 2 2 2 2 2 1 3 6 6 3 0 1 2 8 13 15 17 18 19 19 17 15 16 17 19 20 20 19 18 18 18 16 15 14 13 13 14 14 14 14 14 14 15 16 18 18 19 18 18 18 18 17 18 20 22 24 23 22 21 21 21 21 21 22 23 24 24 24 23 22 20 20 21 22 22 22 21 21 20 18 17 16
2 1 2 2 1 1 2 2 0 1 4 6 5 3 3 3 7 14 17 17 17 17 18 17 16 16 19 22 21 19 20 20 20 19 18 16 15 14 14 14 15 15 15 16 16 15 16 19 20 21 21 21 20 21 22 22 22 21 22 22 21 19 19 20 20 20 21 21 23 23 24 24 24 23 22 22 22 23 23 22 21 21 20 19 18 18
2 2 3 3 2 2 3 3 1 2 5 6 4 6 9 11 12 15 16 16 16 15 16 18 18 19 21 25 25 22 22 22 21 19 18 16 16 16 16 16 16 17 17 16 16 16 17 19 20 21 22 22 21 22 23 24 24 25 24 22 20 18 19 19 20 21 21 21 22 23 24 23 23 21 21 22 23 24 24 23 21 21 20 19 18 17
4 4 4 5 6 6 7 7 6 8 11 11 10 11 13 15 16 18 19 18 15 13 15 19 22 23 24 26 26 23 22 21 21 20 19 19 19 18 17 16 16 16 16 16 17 17 17 17 19 21 22 22 22 23 24 24 26 26 26 25 23 21 19 18 19 21 22 22 21 21 22 23 22 21 19 19 21 22 23 23 24 24 23 23 22 20
2 1 3 5 6 4 4 6 7 11 13 14 14 14 14 15 17 19 20 19 17 17 19 22 25 26 25 25 26 25 24 23 23 23 21 20 19 17 16 16 16 16 17 18 18 17 17 17 19 21 22 22 22 22 22 23 24 24 25 25 25 24 21 19 19 20 22 22 22 21 21 22 22 21 19 19 18 19 20 21 21 22 23 24 23 23
3 3 5 6 5 4 6 8 11 15 15 13 12 13 14 15 17 18 19 21 22 23 24 25 26 26 26 26 28 28 27 25 24 23 20 18 17 16 15 16 16 16 17 17 17 17 18 18 19 20 21 21 21 20 20 21 21 21 22 24 25 25 23 21 20 20 20 21 21 21 22 22 21 20 20 19 18 18 18 18 18 19 20 21 21 21
4 5 6 7 8 8 8 11 14 15 13 10 11 12 15 19 22 23 24 25 26 27 27 26 26 26 27 28 28 28 27 25 22 20 19 17 16 16 15 15 15 15 16 16 16 16 16 16 17 17 18 18 18 18 19 20 19 19 20 22 24 25 23 22 21 21 20 20 20 20 20 21 21 21 21 21 20 19 19 18 18 18 18 19 19 19
4 7 8 9 8 6 7 11 11 9 8 9 13 17 21 24 27 28 28 28 28 28 29 29 28 27 26 26 26 26 25 23 20 19 18 18 17 16 16 15 15 15 15 16 16 16 16 15 15 15 16 16 16 17 18 19 18 18 19 20 22 24 23 22 22 22 22 20 20 19 19 19 19 20 20 20 20 20 20 20 20 20 20 19 18 17
3 7 7 7 6 6 12 16 13 12 13 14 18 23 26 27 29 30 29 29 29 29 31 32 31 28 26 24 22 22 23 22 20 19 19 19 17 15 14 13 13 13 14 14 14 14 15 15 15 15 16 16 15 16 17 18 18 18 18 19 21 22 22 21 21 22 22 21 20 19 19 19 19 18 18 18 18 19 20 21 22 22 22 21 19 18
Wind_Direction
175 170 185 186 175 169 167 175 163 137 145 129 127 139 124 148 182 219 191 321 345 82 54 80 89 62 35 27 18 23 38 42 38 32 33 46 188 209 221 235 231 197 200 217 224 232 249 256 249 249 260 265 262 255 249 242 243 248 247 246 248 251 255 257 255 254 253 253 253 251 248 246 244 241 240 239 235 233 227 220 222 223 220 219 220 227
184 188 186 174 164 163 163 159 132 116 122 112 120 125 125 175 179 148 66 340 281 106 94 99 86 65 44 42 34 38 47 42 33 29 29 26 30 356 254 244 225 207 209 225 226 225 241 256 255 255 260 266 266 265 266 260 250 251 253 253 256 260 263 265 264 264 262 261 260 256 250 245 245 245 245 245 239 233 231 228 226 225 222 219 222 228
184 195 180 162 144 118 114 147 132 121 125 115 124 131 147 175 182 108 56 357 16 105 145 123 88 74 56 55 47 46 51 49 43 41 41 38 38 34 12 347 274 238 223 226 225 222 232 241 251 260 268 271 269 270 276 279 271 264 263 262 263 266 268 268 267 267 267 269 268 258 250 249 247 246 248 249 240 230 232 233 231 230 226 222 225 228
180 193 168 149 140 116 108 149 129 115 122 119 151 167 155 154 195 156 85 349 12 86 153 133 97 80 63 63 53 48 52 52 51 52 51 50 48 44 39 30 11 320 231 217 218 226 232 234 246 259 270 273 268 272 283 286 282 278 279 278 277 276 272 267 264 264 266 271 272 264 257 256 253 250 251 250 241 230 230 233 230 231 229 226 229 231
163 156 143 138 147 136 129 148 140 135 154 176 195 187 158 173 215 142 117 136 60 70 149 130 105 73 36 44 50 45 50 51 50 54 51 49 49 49 48 41 31 18 349 228 219 231 235 238 246 255 270 284 284 285 285 284 283 281 282 283 283 280 277 275 272 272 273 275 277 277 273 264 254 251 250 249 240 228 225 228 227 227 227 227 228 228
158 138 143 143 150 143 133 152 169 158 158 194 215 208 194 185 194 123 126 144 118 131 208 100 110 95 23 35 52 43 47 50 48 53 52 49 47 45 44 40 39 34 24 28 243 246 25 341 274 272 293 309 304 292 280 276 277 278 279 281 284 285 287 294 294 289 285 283 284 285 283 276 264 253 248 245 238 229 225 226 226 225 223 225 226 224
135 142 155 153 149 147 144 159 187 173 162 190 200 197 194 178 181 147 145 159 140 149 159 355 144 132 82 36 44 46 57 53 49 53 53 53 51 48 47 45 46 46 42 42 47 53 50 46 55 44 356 310 288 276 268 264 267 275 283 288 293 293 295 305 312 305 293 288 288 287 288 288 280 261 250 246 237 234 234 229 226 224 222 222 223 222
129 145 163 155 146 149 158 165 183 180 169 180 180 170 172 187 198 174 158 170 143 128 105 50 74 126 127 50 35 50 63 52 48 51 50 52 53 52 52 51 52 53 54 56 58 60 50 41 41 24 349 322 302 290 287 284 285 292 295 299 304 307 311 318 319 313 303 297 295 293 292 291 285 268 254 247 237 238 240 232 229 231 228 223 222 224
132 161 166 154 153 161 175 165 163 174 182 199 161 154 167 186 188 171 159 147 125 174 140 88 349 124 128 27 31 59 61 49 45 48 50 51 52 54 55 55 58 59 61 65 67 66 58 43 32 12 348 334 324 315 312 309 302 302 305 307 311 319 329 330 323 318 318 321 320 315 306 294 284 269 255 249 246 249 247 237 238 243 239 231 227 226
166 184 172 157 163 178 182 162 162 176 192 160 135 118 110 90 83 110 160 142 158 193 156 104 329 150 133 4 20 56 54 47 44 54 57 53 53 57 58 58 59 60 60 62 63 63 60 52 40 22 355 338 329 318 323 329 317 315 328 333 332 335 341 342 333 323 323 332 335 333 325 302 278 262 254 253 255 259 259 247 243 247 248 244 240 230
97 177 173 168 174 169 156 135 162 178 154 138 135 110 102 89 66 81 66 117 179 173 140 61 317 236 146 320 347 42 51 51 59 70 66 57 55 55 57 58 59 61 61 60 62 62 60 55 45 33 9 340 322 309 320 336 340 337 340 341 345 348 349 348 333 317 317 327 328 327 325 310 283 265 259 263 268 275 282 277 268 260 253 246 242 234
65 149 170 190 169 140 121 111 97 130 139 150 144 127 131 112 90 147 105 232 195 166 124 70 297 276 151 174 173 89 87 96 77 76 73 64 61 58 58 60 61 64 65 64 63 60 56 52 45 38 26 358 332 319 325 336 341 342 337 329 329 331 333 337 332 325 325 326 319 310 309 304 292 277 267 273 281 289 293 292 288 274 258 247 237 228
141 157 194 177 163 152 135 128 109 114 179 198 150 152 166 155 157 180 182 197 189 148 100 280 279 43 88 116 133 116 106 95 78 77 79 71 65 62 59 58 58 62 65 63 61 58 54 48 42 37 31 19 3 352 348 343 340 340 336 329 325 321 319 321 324 325 324 321 315 304 297 290 283 273 263 269 279 285 288 287 284 274 262 254 243 227
179 225 229 167 166 169 157 152 157 162 185 190 169 171 177 167 164 169 169 179 158 119 82 299 277 120 117 131 132 128 108 88 81 80 81 77 70 64 60 58 58 61 63 62 60 60 57 51 46 41 33 27 21 15 7 356 347 341 335 331 327 322 318 315 316 318 317 315 312 309 305 296 287 278 267 270 279 285 286 284 280 272 264 260 251 236
182 213 194 175 168 167 166 170 160 150 166 178 169 176 172 170 171 162 161 160 138 121 71 352 351 132 136 137 135 130 109 92 87 84 80 77 73 68 63 57 56 59 60 60 61 60 58 54 49 44 37 30 24 17 8 357 350 342 335 333 331 327 323 320 319 319 317 312 308 307 307 300 293 287 278 278 283 286 290 294 293 284 274 266 252 238
180 206 190 161 148 162 166 167 142 141 159 181 126 154 180 173 135 107 90 77 111 116 62 25 48 80 106 127 150 135 114 104 100 89 78 72 66 61 57 50 47 54 56 56 57 56 53 50 45 38 33 26 16 6 359 352 346 342 340 338 334 330 327 322 317 312 305 299 297 295 295 293 289 287 284 281 283 287 293 303 304 291 276 266 248 231
164 173 171 126 154 175 163 148 150 158 153 143 173 179 173 111 107 120 114 33 71 135 97 22 115 114 116 149 175 149 122 117 108 90 78 72 65 59 55 48 45 51 55 54 53 50 45 41 39 31 23 14 3 354 352 351 348 346 343 340 337 332 326 318 313 311 307 301 294 279 267 267 268 272 279 279 283 289 296 307 300 279 261 254 242 225
176 143 157 179 178 197 136 126 120 124 137 145 178 168 128 77 82 115 130 101 110 128 105 208 160 158 161 161 171 155 130 124 114 97 88 75 68 66 59 53 50 53 58 56 52 51 45 39 39 32 19 14 9 1 359 358 356 352 346 342 341 339 337 331 323 321 317 309 297 274 256 252 252 252 266 285 290 282 278 285 278 263 253 248 238 224
185 117 64 245 163 120 122 127 113 56 40 138 155 147 132 163 166 149 139 148 142 114 117 158 174 195 199 175 176 164 139 130 119 101 92 77 71 73 63 54 52 54 57 54 51 50 45 39 39 33 24 20 16 10 9 8 3 357 352 350 349 347 345 341 334 328 322 316 305 282 263 258 256 251 258 277 275 245 246 259 257 251 249 244 236 227
251 129 136 300 41 122 141 164 162 151 70 53 131 141 20 196 167 151 115 137 141 130 139 147 176 219 207 171 183 170 145 134 121 103 94 84 81 79 69 57 53 55 57 55 52 51 48 44 41 36 29 20 14 15 17 16 11 3 359 356 352 350 347 343 339 332 325 319 313 298 274 261 260 255 253 261 255 231 232 250 252 249 245 239 239 237
26 120 130 85 272 169 157 193 193 160 142 145 152 150 127 92 115 121 83 42 122 142 148 146 176 221 133 142 185 167 144 132 122 115 110 97 87 79 73 68 61 59 60 57 52 50 49 49 43 37 32 24 22 25 24 24 22 17 13 6 356 349 345 343 342 336 327 318 310 304 284 258 249 248 246 251 253 243 237 245 250 250 245 237 236 236
101 107 126 121 141 159 119 341 265 188 147 151 161 163 146 128 135 148 141 76 81 127 145 154 179 182 83 70 170 146 131 126 122 119 116 108 96 85 77 73 67 60 58 56 52 49 47 45 39 31 26 24 25 26 24 25 25 22 21 17 9 1 353 347 344 337 330 320 304 295 280 248 239 245 250 251 252 248 245 249 249 246 243 237 233 229
134 90 99 95 93 97 28 15 21 98 91 92 104 146 142 134 152 169 174 155 117 103 122 140 169 133 86 71 108 114 115 118 119 119 119 115 103 92 85 78 72 63 54 53 52 51 48 42 35 28 26 29 29 26 24 24 25 23 23 22 19 14 7 357 349 339 331 324 305 290 279 262 254 253 254 254 252 247 245 249 250 245 240 238 236 231
155 76 96 103 86 70 71 72 56 53 84 84 61 43 58 117 129 142 153 144 138 141 140 148 166 137 103 91 101 108 109 109 113 118 120 116 104 95 91 81 77 73 62 57 57 57 51 44 38 34 34 35 31 28 28 29 28 25 24 25 24 21 17 8 357 344 334 326 304 286 277 271 266 260 255 255 254 250 246 249 251 248 242 239 237 234
172 15 108 128 116 98 111 135 132 72 70 81 65 34 15 82 106 103 102 115 138 166 174 167 163 140 119 113 108 109 109 107 110 116 118 115 108 100 90 79 79 81 73 65 62 60 52 43 39 38 37 35 33 34 35 34 31 28 28 29 27 25 22 16 10 358 345 337 315 287 272 265 262 263 263 262 258 252 248 248 249 247 242 238 235 233
128 21 35 147 142 143 143 146 153 127 94 73 60 31 26 65 113 115 119 145 165 166 190 189 151 127 125 125 118 115 113 110 110 112 112 112 109 102 91 80 78 78 73 66 62 59 51 41 38 38 37 36 36 37 38 35 34 33 33 33 30 26 22 19 18 15 4 356 343 313 287 272 265 264 266 265 263 260 256 253 249 245 242 238 235 233
108 49 40 60 87 112 114 86 11 78 119 108 67 32 28 12 325 80 132 163 155 147 185 213 140 143 150 144 131 125 120 114 113 112 111 110 106 99 91 80 76 74 69 65 61 57 51 43 40 38 36 37 39 39 38 36 35 35 34 33 30 28 25 23 23 24 22 16 6 351 324 294 279 274 271 268 266 265 264 261 255 248 244 241 239 236
108 74 52 58 64 61 67 82 71 72 91 95 78 49 34 12 329 102 125 132 131 142 185 181 147 151 157 149 135 128 120 112 112 110 110 111 105 98 90 81 77 71 66 65 63 60 55 49 44 40 37 38 39 39 38 36 35 35 34 30 27 26 26 26 25 25 24 22 15 7 354 329 301 287 279 275 272 267 266 265 260 254 248 244 242 238
104 82 80 85 77 64 66 83 86 87 88 79 71 61 47 44 53 82 84 40 117 147 163 152 149 145 141 135 125 120 116 113 113 111 111 111 100 92 85 78 74 65 62 64 63 62 59 53 46 42 38 38 37 37 37 35 32 31 31 28 24 23 25 27 26 26 26 24 20 11 359 345 324 302 287 280 276 271 267 264 263 260 254 249 245 239
88 90 124 111 82 60 58 78 92 97 94 76 62 59 66 74 77 85 89 68 56 74 117 132 128 109 106 117 109 109 112 111 110 108 105 100 91 85 81 75 70 64 62 63 61 62 61 55 50 46 41 38 36 35 33 32 30 27 26 26 22 21 24 27 27 29 30 29 26 20 11 2 345 325 306 289 280 275 271 267 265 262 258 253 249 244
76 129 155 126 80 56 54 81 96 99 96 80 62 53 64 78 77 77 81 69 72 98 116 120 113 96 96 110 108 111 112 106 102 99 93 88 84 84 81 72 67 65 64 64 61 61 60 55 51 48 42 37 35 34 30 30 30 27 24 24 21 20 23 27 28 29 29 29 28 26 21 14 3 348 331 310 292 282 276 273 271 266 262 258 251 246
77 137 175 185 92 74 64 92 92 92 96 82 57 37 39 57 73 73 67 54 103 130 127 123 124 129 127 117 109 105 102 98 95 92 87 82 80 82 80 74 67 65 67 66 61 58 55 51 48 45 40 35 33 31 27 27 29 27 24 23 21 19 20 25 29 28 25 23 23 23 22 18 12 3 351 334 314 294 282 278 277 276 275 269 258 251
109 139 158 159 101 126 181 133 33 311 130 94 37 10 21 65 91 85 64 48 80 136 136 131 132 132 132 126 112 102 98 92 87 86 84 81 81 81 79 76 71 67 69 67 61 57 53 48 45 42 38 34 34 32 26 24 25 26 25 24 22 20 20 24 27 26 24 22 20 20 19 17 14 11 5 354 338 316 295 283 280 283 285 279 267 260
104 120 130 94 105 148 189 234 284 190 160 100 331 308 293 105 99 91 72 52 58 97 107 107 120 127 128 124 115 108 101 90 83 82 81 83 87 85 83 82 79 76 73 68 63 60 55 51 47 43 40 39 37 34 29 25 23 24 26 26 24 23 22 23 23 23 22 22 20 19 18 16 13 11 8 3 354 339 321 309 301 297 295 290 281 271
117 105 102 73 96 138 176 216 178 165 159 338 15 70 102 111 103 92 77 63 74 103 109 110 116 119 113 110 109 106 101 94 88 83 80 81 85 86 86 85 82 81 76 70 67 62 57 53 48 44 42 41 38 35 32 29 26 26 28 30 29 27 25 23 21 21 21 19 18 17 17 17 15 13 9 5 0 354 347 342 330 315 309 301 286 272
124 118 102 74 79 127 147 161 160 146 46 43 111 102 107 119 116 98 74 57 71 112 120 115 112 112 112 112 111 109 105 99 86 75 71 77 83 86 89 88 86 85 79 73 69 63 59 54 49 46 44 42 40 38 35 33 31 31 32 35 35 32 28 24 22 21 20 17 15 14 16 18 19 18 16 11 8 6 2 356 343 324 309 297 280 262
110 122 111 86 51 124 116 87 83 129 186 193 161 174 153 132 141 114 86 68 69 112 126 124 121 122 121 121 123 123 118 101 79 64 62 74 83 87 90 92 92 88 83 79 74 68 65 60 56 54 50 46 45 43 41 41 38 36 36 38 38 35 30 26 23 20 18 17 15 12 13 18 20 21 22 22 20 19 15 7 356 339 315 294 277 258
59 92 132 118 68 116 117 106 116 157 208 203 173 162 69 84 307 338 101 100 101 123 133 131 128 131 133 135 140 144 137 102 73 62 70 82 89 95 96 97 96 93 89 86 80 74 70 64 61 60 55 53 53 50 49 47 42 40 39 39 39 36 32 27 23 19 17 17 16 12 11 17 20 22 27 29 28 27 24 18 9 359 345 319 289 268
56 49 82 103 108 143 130 124 153 174 224 166 155 153 28 89 301 294 140 138 143 145 143 135 132 138 142 145 153 163 159 110 103 119 117 109 107 104 99 97 96 93 89 85 79 74 70 64 61 59 56 55 53 50 49 46 43 43 42 40 40 37 34 30 25 21 19 18 17 16 15 19 21 23 30 35 35 34 32 27 21 18 16 9 343 309
50 34 52 94 112 129 110 95 137 176 345 115 142 161 236 198 183 202 194 159 154 157 155 145 141 144 149 151 152 153 97 120 139 145 136 124 116 108 102 100 98 93 88 83 78 74 68 63 59 55 53 50 46 42 40 38 40 43 44 43 42 39 37 33 29 26 23 20 20 22 22 24 26 28 34 39 40 40 41 38 32 30 36 41 38 38
49 28 51 100 105 104 103 102 106 96 190 168 157 182 220 188 184 202 211 137 145 150 151 146 143 145 148 147 135 101 91 112 130 136 134 127 118 110 105 102 98 93 90 86 81 75 70 66 61 56 52 48 41 37 34 33 37 42 43 42 42 41 38 35 32 31 29 26 26 27 29 32 32 33 37 43 46 46 47 48 44 41 52 61 62 68
74 61 73 99 105 99 88 99 109 94 173 165 146 110 182 193 187 145 106 123 136 140 141 140 139 138 133 119 112 112 110 114 123 128 128 124 117 110 108 104 99 95 90 86 81 74 70 66 61 57 52 47 41 37 34 34 39 43 42 40 39 38 34 30 30 31 31 32 33 34 36 38 38 38 41 46 52 53 52 55 55 52 56 64 70 76
63 92 108 97 103 106 93 111 136 140 151 153 147 139 242 293 134 124 119 122 129 132 135 137 137 136 128 116 112 116 116 117 122 123 123 122 118 114 111 106 99 94 89 84 78 72 69 67 63 59 55 51 47 44 41 43 44 44 43 41 37 33 30 28 28 29 30 35 38 39 42 44 45 46 47 51 57 60 58 59 62 61 60 61 64 70
12 10 138 152 230 205 125 131 138 46 128 148 153 138 111 105 131 135 128 124 127 133 137 139 138 138 132 125 121 121 120 121 123 123 122 121 117 113 107 101 97 92 87 84 77 72 72 70 66 62 58 55 53 51 50 51 50 47 45 42 36 32 31 31 31 31 34 38 43 44 45 48 52 54 56 56 57 56 55 56 58 60 59 58 58 62
43 67 101 105 97 72 77 98 116 98 108 112 98 103 113 119 131 136 129 125 131 140 144 143 143 142 136 130 127 125 123 125 125 124 123 119 114 109 103 99 96 90 86 82 75 72 74 73 68 63 59 56 54 53 54 54 53 50 47 42 37 34 35 36 36 38 41 44 47 49 48 49 53 55 56 55 52 50 50 50 50 52 52 52 52 53
96 86 74 100 118 100 70 74 98 104 100 99 101 110 118 125 135 138 134 131 135 139 141 145 147 145 139 132 128 125 125 126 125 123 120 115 109 106 102 99 96 90 86 83 77 74 76 75 69 62 59 57 55 56 58 58 55 52 48 44 40 37 37 38 41 45 47 48 49 53 54 53 53 52 51 51 50 49 48 47 47 49 50 49 49 47
134 93 87 115 136 131 83 85 105 109 108 110 112 115 118 125 136 142 140 136 136 137 139 144 145 142 135 130 127 125 124 124 123 120 117 113 108 106 103 101 96 90 85 81 77 76 75 72 67 61 59 57 55 56 58 56 53 50 45 42 40 38 36 38 43 47 50 49 49 51 54 57 57 55 53 53 52 51 51 50 48 47 47 47 45 43
155 141 120 114 113 108 109 112 106 101 103 110 114 117 122 126 132 137 135 135 137 137 137 139 138 135 131 128 125 124 123 122 121 120 117 113 109 106 103 100 96 90 84 78 75 75 73 69 66 63 60 58 55 55 54 50 47 44 41 39 37 35 35 38 42 46 50 52 51 50 50 52 55 56 56 54 52 52 52 50 47 46 47 46 43 39
139 134 125 118 110 100 107 120 113 98 91 98 108 117 127 131 130 130 129 131 133 132 131 132 131 129 127 125 124 123 123 122 123 121 118 112 107 104 101 98 95 88 81 76 74 72 70 68 65 62 59 56 55 55 54 51 46 41 39 39 36 33 35 39 42 44 47 50 51 50 48 47 47 49 52 53 52 51 50 48 46 45 48 50 47 42
139 136 131 130 132 136 147 148 137 113 102 114 121 125 130 132 130 128 128 129 129 130 130 128 126 124 123 123 124 124 123 122 122 119 114 109 105 102 99 96 92 86 81 77 74 69 66 62 59 57 54 52 51 53 53 51 47 42 39 39 37 34 35 41 43 42 42 45 47 48 48 47 45 44 46 50 52 53 51 51 50 49 48 49 48 45
175 161 154 138 125 138 153 153 140 118 118 128 131 130 131 132 130 128 129 129 129 130 130 127 125 124 123 121 121 119 118 118 118 115 112 109 106 102 98 95 91 88 85 81 74 67 60 55 51 50 50 50 50 51 49 48 47 44 40 38 36 33 34 40 45 44 40 41 43 45 45 47 47 46 46 48 52 54 52 52 53 54 53 52 50 49